Back to catalog

STARLINK-4716

AliveCommunicationsVLEO
NORAD 53706·PAYLOAD·🇺🇸 United States

Launched Sep 5, 2022 from Cape Canaveral Space Force Station

Loading…

Next Passes (next 24 hours)

TLE

FreshSource: CelesTrak SupGP

Epoch: Sep 14, 2026, 13:25 UTC

1 53706C 22107G   26257.55951389  .00480500  00000+0  17448-1 0  2578
2 53706  53.1591 113.2795 0001209  93.8957 149.9683 15.27524555    10

Track STARLINK-4716 in real time with AllMySat

Download on the App Store